STARLINK-37295, 68552

Orbit data source: Space-Track

STARLINK-37295, 68552 is a payload satellite owned by SpaceX/Seattle (US) in LEO that was launched on Thu, 02 Apr 2026 UTC via an FALCON 9 launch vehicle from the Air Force Eastern Test Range (AFETR). Payload-class satellites include a variety of spacecraft equipped with specific instruments for various scientific and technological missions. These include communications satellites like Starlink; space stations such as the ISS; scientific satellites like the Hubble; Earth observation satellites from companies like Planet Labs, Umbra, and HawkEye 360; GPS; miniature CubeSats for education and research; and military/defense satellites.

Loading next visibility...
Identifier
68552, 2026-070L
Orbit
LEO
Country
Flag of USUS
Related business
Manufacturer
SpaceX/Seattle
Mission
Operational spacecraft
Bus & Motor
STARLINK V2MO, Unknown motor
Mass
575 kg wet, ~530 kg dry
Launch date (UTC)
2026-04-02 (2 months ago)
Launch vehicle
FALCON 9
Launch site
Air Force Eastern Test Range (AFETR)
Object type
Payload
Rocket body
Debris
Shape & HBR
Unknown shape, 14.5 m
Radar Cross Section
RCS unknown

Expand to show TLE details & history
Last TLE update: 16 hours ago

TLE from 16 hours ago
0 STARLINK-37295
1 68552U 26070L   26145.32600090  .00012917  00000-0  39265-3 0  9997
2 68552  53.1603   6.2271 0001292  93.1248 266.9902 15.34409612  8293
Epoch: 2026-05-25T07:49Z
TLE epoch observation values (Epoch: 2026-05-25T07:49:26.477Z)
Latitude
-0.00007°
Longitude
5.95132°
Altitude
463.623 km
Speed
7.636 km/s
True Right ascension
00h 24m 54s
True Declination
0° 00' 00"
Sunlit
Object was in daylight at epoch
Visualization orbit readout
Latitude
Unknown
Longitude
Unknown
Altitude
Unknown
Speed
Unknown
Apparent Right ascension
Unknown
Apparent Declination
Unknown
Sunlit
N/A
Visualization observer readout
Local Sidereal Time
09:22:16
Azimuth
Unknown
Elevation
Unknown
Doppler factor
Unknown
Orbital elements
Apogee altitude
463.815 km
Perigee altitude
462.048 km
Semi-major axis
6,841.069 km
Eccentricity
0.00013
Inclination
53.1603°
RAAN
6.2271°
Arg. of periapsis
93.1248°
True anomaly
266.97542°
Mean anomaly
266.9902°
Eccentric anomaly
266.98281°
Mean motion
3.83581 °/min
Orbital period
93.85 mins
BSTAR
0.00039265
Loading maneuver chart data...
Computing Atmospheric mass density...
Loading historical data...
Loading historical data...
Loading historical data...
Loading historical data...
Loading historical data...
Loading historical data...
Loading historical data...

Documentation

Showing up to 5 results
|